Location: Dongjum
(53.2096°N, 5.5439°E)
Time: 00:18:37
(UTC+00:00)

Daily predictions for brighter satellites

Satellite Brightness Start Highest point End
(mag) Time Altitude Azimuth Time Altitude Azimuth Time Altitude Azimuth
Cosmos 2227 Rocket 4.5 03:47:49 13° N 03:47:49 13° N 03:49:50 10° NNE
Cosmos 2263 Rocket 4.2 03:51:15 16° N 03:51:15 16° N 03:53:00 10° NNE
COSMOS 2406 4.4 03:52:21 32° SSE 03:52:21 32° SSE 03:55:17 10° SSE
Cosmos 2082 Rocket 2.4 03:52:50 64° ESE 03:52:50 64° ESE 03:57:40 10° SE
COSMOS 2455 3.9 03:57:05 33° S 03:57:05 33° S 04:00:23 10° SSE
METEOR-M 4.1 03:59:42 10° NNE 04:04:50 78° ENE 04:04:50 78° ENE
ARIANE 5 R/B 4.5 04:00:29 10° N 04:01:49 18° N 04:01:49 18° N
Cosmos 1844 Rocket 4.0 04:07:43 27° N 04:07:43 27° N 04:10:44 10° NNE
Cosmos 1513 Rocket 4.4 04:02:48 30° N 04:06:12 89° WSW 04:12:36 10° S
MOS 1-B Rocket 4.1 04:05:38 10° SSE 04:12:10 76° ENE 04:16:31 19° NNW
Cosmos 2034 Rocket 4.2 04:06:00 10° N 04:12:11 69° ENE 04:18:24 10° SSE
Cosmos 676 Rocket 4.1 04:15:15 63° N 04:15:15 63° N 04:19:43 10° NNE
Cosmos 2278 Rocket 2.4 04:13:39 42° S 04:15:32 69° ESE 04:21:11 10° NE
USA 215 3.4 04:11:25 10° SE 04:17:43 50° SW 04:17:51 50° SW
BREEZE M DEB (TANK) 4.0 04:21:18 43° S 04:21:29 43° S 04:24:23 10° E
Cosmos 1072 Rocket 4.3 04:18:58 35° NNW 04:21:41 74° W 04:27:46 10° S
CZ-2C R/B 3.0 04:16:35 10° SSE 04:22:04 67° ENE 04:26:50 14° N
Cosmos 540 Rocket 3.7 04:25:25 54° SSW 04:25:25 54° SSW 04:29:31 10° SSE
SKYMED 2 3.8 04:21:04 10° SSE 04:25:22 66° ENE 04:26:01 56° NNE
Cosmos 1933 4.2 04:27:43 37° NNE 04:28:51 49° ENE 04:32:44 10° SSE
NOSS 3-3 (A) 4.5 04:27:19 39° NW 04:30:31 83° NE 04:38:51 10° SE
NOSS 3-3 (C) 4.5 04:27:24 39° NW 04:30:37 83° NE 04:38:56 10° SE
Cosmos 1833 Rocket 4.4 04:34:00 18° SSW 04:34:00 18° SSW 04:35:38 10° S
Cosmos 2346 Rocket 4.5 04:25:02 10° S 04:31:18 84° E 04:37:37 10° NNE
Cosmos 1741 Rocket 4.3 04:30:38 10° SSW 04:35:48 65° ESE 04:40:59 10° NNE
Meteor 1-31 Rocket 4.1 04:33:03 10° NNE 04:36:43 39° E 04:40:22 10° SSE
Cosmos 2151 4.0 04:39:38 10° SSE 04:43:44 46° E 04:47:53 10° NNE
Cosmos 1812 4.5 04:44:34 10° N 04:48:05 32° ENE 04:51:34 10° SE
Cosmos 841 Rocket 3.4 04:48:36 55° W 04:48:58 56° WSW 04:54:00 10° S
CZ-4C R/B 3.1 04:48:39 10° SSE 04:51:33 62° ESE 04:51:33 62° ESE
SJ-12 3.9 04:52:10 10° NNE 04:56:19 83° ESE 05:00:28 10° SSW
Envisat 3.0 04:52:03 10° NNE 04:57:11 80° ESE 05:02:16 10° SSW
H-2A R/B 3.3 04:54:21 10° SE 04:58:18 40° ENE 05:02:21 10° N
Genesis I 3.9 04:57:08 39° NNW 04:58:19 53° NE 05:02:20 10° ESE
Cosmos 2297 Rocket 4.4 04:56:14 10° NNW 04:59:16 15° NNE 05:02:28 10° NE
Cosmos 1570 Rocket 3.9 05:01:27 29° NNW 05:04:11 74° WSW 05:09:25 10° SSE
YAOGAN 6 2.5 05:01:48 10° N 05:05:30 72° WNW 05:09:09 10° SSW
Lacrosse 4 Rocket 3.8 05:07:57 12° N 05:08:26 12° N 05:10:05 10° NNE
Cosmos 1076 Rocket 3.4 05:04:25 10° SSW 05:08:46 71° WNW 05:13:10 10° N
CBERS 1 LM4 rocket 4.4 05:04:21 10° NNE 05:09:08 84° ESE 05:14:00 10° SSW
DMSP B5D2-2 4.3 05:06:02 10° SSE 05:11:14 73° ENE 05:16:27 10° NNW
Cosmos 1867 3.5 05:10:51 31° NW 05:13:28 71° SW 05:18:54 10° SSE
COSMO-SKYMED 1 2.8 05:09:21 10° S 05:13:31 46° W 05:14:38 37° WNW
Cosmos 1241 Rocket 4.4 05:10:06 26° NW 05:13:50 79° SW 05:20:01 10° SSE
Aureole 1 Rocket 4.3 05:12:14 10° S 05:14:55 28° ESE 05:17:32 10° NE
Cosmos 1464 Rocket 4.5 05:10:07 10° NNW 05:15:50 36° W 05:21:26 10° SSW
APEX 2.8 05:16:51 49° SSW 05:16:51 49° SSW 05:19:11 10° SSE
Cosmos 921 Rocket 3.3 05:13:08 17° NNW 05:16:28 67° ENE 05:20:52 10° SSE
H-2A R/B 2.6 05:14:51 10° N 05:18:29 58° WNW 05:22:06 10° SSW
NOSS 3-2 (A) 4.0 05:14:47 10° SSW 05:20:19 58° SE 05:26:48 10° NE
Cosmos 1151 Rocket 3.3 05:20:20 10° N 05:24:43 70° ENE 05:29:06 10° SSE
CENTAUR R/B 3.3 05:21:17 10° SSW 05:27:06 55° SE 05:34:06 10° NE
Cosmos 2208 Rocket 4.1 05:24:24 18° NW 05:28:24 61° WSW 05:33:44 10° S
Cosmos 968 Rocket 4.5 05:23:30 10° S 05:28:27 49° ESE 05:33:24 10° NE
CZ-4B R/B 3.7 05:25:06 10° NNE 05:28:40 46° E 05:32:07 10° S
Meteor 2-6 Rocket 4.4 05:23:55 10° N 05:29:26 70° ENE 05:34:49 10° SSE
Gbstr 26 Del rocket 3.9 05:28:19 25° WSW 05:29:30 30° SSW 05:33:14 10° SSE
Cosmos 1814 Rocket 4.3 05:28:34 24° NW 05:31:06 41° WSW 05:35:53 10° S
Meteor 2-3 Rocket 3.6 05:27:17 10° SSW 05:32:55 78° WNW 05:38:41 10° NNE
Cosmos 2227 Rocket 4.3 05:30:16 10° NNW 05:33:47 16° NNE 05:37:17 10° ENE
Landsat 5 4.2 05:29:53 10° SSW 05:34:05 38° W 05:36:50 19° NW
Cosmos 2263 Rocket 4.2 05:32:57 10° NNW 05:35:15 12° N 05:37:34 10° NNE
Cosmos 2082 Rocket 3.2 05:34:44 23° W 05:35:35 24° WSW 05:39:55 10° SSW
ALOS 4.3 05:33:31 10° NNW 05:34:05 12° NNW 05:34:05 12° NNW
Meteor 1-26 Rocket 4.4 05:30:56 10° NNW 05:36:50 57° W 05:42:35 10° S
Meteor PRIRODA 3.9 05:35:53 10° NNE 05:39:30 71° ESE 05:43:06 10° S
Cosmos 1850 Rocket 4.3 05:37:01 10° SW 05:42:08 44° NW 05:47:17 10° NNE
CZ-4B R/B 2.2 05:39:29 10° SSE 05:42:45 51° ENE 05:46:01 10° N
Cosmos 2297 3.9 05:37:45 10° SSW 05:43:29 79° ESE 05:49:15 10° NNE
Kosmos-917 4.0 05:43:21 13° SW 05:45:50 80° NW 05:52:16 10° NE
Cosmos 836 Rocket 4.5 05:43:34 10° NNW 05:48:53 87° WSW 05:54:08 10° SSE
Cosmos 1844 Rocket 4.4 05:49:23 13° NW 05:51:09 15° NNW 05:54:23 10° NNE
Cosmos 1515 Rocket 4.3 05:47:02 10° N 05:51:23 54° ENE 05:55:40 10° SSE
Cosmos 1782 3.3 05:48:34 14° NNW 05:51:34 36° W 05:55:12 10° SSW
USA 238 DEB 4.2 05:45:40 10° SSW 05:52:06 64° SE 05:58:56 10° NE
USA 238 4.2 05:45:47 10° SSW 05:52:12 63° SE 05:59:02 10° NE
NOAA 11 4.1 05:48:09 10° NNE 05:53:39 78° WNW 05:59:06 10° SSW
Cosmos 2142 Rocket 4.5 05:48:56 10° NNW 05:55:12 70° W 06:01:30 10° S
CZ-2C R/B 2.9 05:50:37 10° NNE 05:55:25 89° ESE 06:00:17 10° SSW
Cosmos 1862 3.5 05:54:27 10° S 05:58:23 75° E 06:02:21 10° NNE
Cosmos 2278 Rocket 2.9 05:55:34 12° W 06:00:05 32° NW 06:05:11 10° NNE
Meteor 2-15 4.5 05:56:23 10° N 06:02:31 88° E 06:08:35 10° S
CZ-2C R/B 3.7 05:58:20 10° SW 06:02:49 25° W 06:07:15 10° NW
Cosmos 1943 Rocket 2.2 05:57:52 10° SW 06:03:34 80° WNW 06:09:16 10° NNE
Okean 3 Rocket 3.7 06:02:12 10° S 06:06:43 86° E 06:11:18 10° NNE
FengYun 1-2 T 4.4 06:03:22 10° NNE 06:08:56 80° ESE 06:14:25 10° SSW
ADEOS 3.7 06:04:10 10° N 06:09:15 53° WNW 06:14:20 10° SW
Cosmos 2344 3.6 06:02:30 10° WSW 06:09:52 70° NW 06:18:14 10° NE
Cosmos 1833 4.2 06:04:28 10° NNW 06:10:11 90° W 06:15:55 10° SSE
Meteor 1-31 Rocket 3.8 06:07:44 10° N 06:10:57 25° WNW 06:14:09 10° WSW
Iridium 2 4.2 06:14:29 10° SW 06:18:00 36° WNW 06:21:34 10° N
SL-8 R/B 4.4 06:13:29 10° WSW 06:18:06 48° S 06:22:41 10° ESE
SJ 16-02 4.3 06:15:29 10° SE 06:18:35 19° E 06:21:41 10° NE
Cosmos 2279 Rocket 4.2 06:12:41 10° NNW 06:18:40 52° W 06:24:37 10° SSW
Cosmos 2151 4.0 06:17:45 10° WSW 06:21:16 24° WNW 06:24:48 10° N
AQUARIUS 4.3 06:17:34 10° NNE 06:22:06 84° ESE 06:26:36 10° SSW
DNEPR-1 R/B 3.9 06:17:44 11° NW 06:22:07 68° SW 06:27:27 10° SSE
Cosmos 1812 3.7 06:20:27 10° NNW 06:23:45 27° W 06:27:01 10° SSW
Cosmos 1939 Rocket 2.9 06:26:56 10° N 06:30:53 55° WNW 06:34:44 10° SSW
Nadezhda 4 Rocket 4.1 06:28:05 10° S 06:34:14 84° E 06:40:28 10° NNE
Cosmos 773 Rocket 4.1 06:29:04 10° NNW 06:34:23 89° WSW 06:39:36 10° SSE
H-2A R/B 3.0 06:30:45 10° SSW 06:34:24 28° W 06:38:08 10° NW
SMAP 3.0 06:29:49 10° N 06:34:28 70° WNW 06:39:06 10° SSW
Envisat 4.2 06:31:54 10° N 06:35:41 21° NW 06:39:26 10° WSW
Genesis I 4.4 06:32:07 10° WNW 06:35:41 29° WSW 06:39:13 10° S
Cosmos 2228 Rocket 3.8 06:31:21 10° N 06:35:45 58° ENE 06:40:11 10° SSE
Meteor 1-27 Rocket 3.7 06:30:39 10° NNW 06:36:14 79° W 06:41:53 10° S
CZ-2D R/B 3.2 06:33:35 10° NNE 06:37:25 89° ESE 06:41:13 10° SSW
Cosmos 1766 Rocket 3.9 06:36:05 10° SW 06:40:14 43° WNW 06:44:24 10° N
Cosmos 2098 Rocket 3.5 06:37:11 10° SW 06:40:27 31° WNW 06:44:26 10° N
PSLV R/B 3.7 06:37:13 10° NNE 06:41:02 80° WNW 06:44:57 10° SSW
Cosmos 2297 Rocket 3.5 06:40:00 10° NNW 06:45:08 34° NE 06:50:16 10° ESE
